Location: Gazon
(48.1318°N, 1.2708°W)
Time: 02:39:32
(UTC+00:00)

Exosat Rocket - Pass Details

Date: 18 September 2020
Orbit: 760 x 2514 km, 72.3° (Epoch: 29 October)

Event Time Altitude Azimuth Distance (km) Brightness Sun altitude
Rises 20:58:53 0° 214° (SSW) 3,644 7.0 -26.9°
Reaches altitude 10° 21:01:37 10° 217° (SW) 2,544 6.2 -27.3°
Maximum altitude 21:07:04 62° 298° (WNW) 883 3.9 -28.0°
Drops below altitude 10° 21:12:01 10° 20° (NNE) 2,309 6.2 -28.6°
Sets 21:14:24 0° 24° (NNE) 3,277 7.0 -28.9°
